KMIEDWAR2 Weather Reports


time (UTC)temp
F
wind
direction
speed
knots
gust
knots
rain 1hr
in
rain 24hr
in
rain mn
in
humidity
%
barometer
mb
20260509024010 54 210 0.0 0.0 0.00 0.01 0.01 72 1006.2
20260509023510 54 210 0.0 0.0 0.00 0.01 0.01 72 1006.3
20260509023011 54 210 0.0 0.0 0.00 0.01 0.01 72 1006.2
20260509022511 54 0.0 22.6 0.00 0.01 0.01 75 1006.2
20260509022010 54 209 0.0 22.6 0.00 0.01 0.01 75 1006.2
20260509021511 54 209 0.0 22.6 0.00 0.01 0.01 75 1006.3
20260509020510 54 209 0.0 22.6 0.00 0.01 0.01 75 1006.3
20260509020010 54 208 0.0 22.6 0.00 0.01 0.01 76 1006.4
20260509015511 0 210 0.0 22.6 0.00 0.01 0.01 1006.4
20260509014511 0 210 0.0 22.6 0.00 0.01 0.01 1006.3
20260509014011 0 210 0.0 22.6 0.00 0.01 0.01 1006.2
20260509013510 0 210 0.0 22.6 0.00 0.01 0.01 1006.2
20260509012511 0 0.0 22.6 0.00 0.01 0.01 1006.1
20260509012010 0 0.0 22.6 0.00 0.01 0.01 1006.1
20260509011511 0 0.0 22.6 0.00 0.01 0.01 1006.2
20260509011010 0 0.0 22.6 0.00 0.01 0.01 1006.2
20260509010511 0 0.0 22.6 0.00 0.01 0.01 1006.1
20260509010011 58 209 0.0 22.6 0.00 0.08 0.01 59 1005.9
20260509005510 58 209 0.0 22.6 0.00 0.08 0.01 59 1006.0
20260509005011 58 209 0.0 22.6 0.00 0.08 0.01 59 1005.9
20260509004011 66 0.0 0.0 0.00 0.08 0.01 59 1005.9
20260509003510 66 205 0.9 0.0 0.00 0.08 0.01 59 1005.9
20260509002510 66 205 0.0 0.0 0.00 0.08 0.01 59 1005.7
20260509002011 66 205 0.0 0.0 0.00 0.08 0.01 59 1005.7
20260509001510 66 205 0.0 0.0 0.00 0.08 0.01 59 1005.7
20260509000511 66 0.0 22.6 0.00 0.08 0.01 59 1005.7
20260509000011 66 202 0.9 22.6 0.00 0.08 0.01 59 1005.7
20260508235511 66 202 0.9 22.6 0.00 0.08 0.01 59 1005.8
20260508235011 66 202 0.9 22.6 0.00 0.08 0.01 59 1005.8
20260508233010 68 210 0.0 22.6 0.00 0.08 0.01 59 1005.8
20260508232511 69 211 0.0 22.6 0.00 0.08 0.01 59 1005.8
20260508232010 69 211 0.0 22.6 0.00 0.08 0.01 59 1005.8
20260508231511 69 211 0.0 22.6 0.00 0.08 0.01 59 1006.0
20260508231010 69 212 0.9 22.6 0.00 0.08 0.01 59 1005.9
20260508230511 69 212 0.9 22.6 0.00 0.08 0.01 59 1006.0
20260508230011 70 212 0.9 22.6 0.00 0.08 0.01 59 1006.0
20260508225511 70 200 0.9 22.6 0.00 0.09 0.01 59 1006.0
20260508225011 70 200 0.9 22.6 0.00 0.09 0.01 59 1006.0
20260508224511 69 194 0.9 22.6 0.00 0.09 0.01 59 1005.9
20260508223510 66 201 0.0 22.6 0.00 0.09 0.01 59 1006.0
20260508223011 66 201 0.0 22.6 0.00 0.09 0.01 59 1006.1
20260508222511 66 201 0.0 22.6 0.00 0.09 0.01 59 1006.0
20260508222010 66 0.0 22.6 0.00 0.09 0.01 59 1006.0
20260508221511 66 257 0.0 22.6 0.00 0.09 0.01 59 1006.1
20260508221011 66 257 0.0 22.6 0.00 0.09 0.01 59 1006.1
20260508220510 64 274 0.9 22.6 0.00 0.09 0.01 65 1006.1
20260508220010 64 274 0.9 22.6 0.00 0.09 0.01 65 1006.1
20260508215511 64 274 0.9 22.6 0.00 0.09 0.01 65 1006.1
20260508215011 64 0.0 22.6 0.00 0.09 0.01 65 1006.1
20260508214511 64 165 4.3 22.6 0.00 0.09 0.01 65 1006.1
20260508214011 64 165 4.3 22.6 0.00 0.09 0.01 65 1006.2
20260508212511 64 198 1.7 0.0 0.00 0.09 0.01 65 1006.3
20260508212011 64 198 1.7 0.0 0.00 0.09 0.01 65 1006.3
20260508211511 0 0.0 22.6 0.00 0.09 0.01 1006.3
20260508211011 0 0.0 22.6 0.00 0.09 0.01 1006.4
20260508210511 0 0.0 22.6 0.00 0.09 0.01 1006.5
20260508210011 0 0.0 22.6 0.00 0.09 0.01 1006.5
20260508205011 0 0.0 22.6 0.00 0.09 0.01 1006.6
20260508204511 0 0.0 22.6 0.00 0.09 0.01 1006.7
20260508204011 0 0.0 22.6 0.00 0.09 0.01 1006.7
20260508203511 0 0.0 22.6 0.00 0.09 0.01 1006.8
20260508202511 66 204 2.6 22.6 0.00 0.09 0.01 64 1006.9
20260508202011 66 204 2.6 22.6 0.00 0.09 0.01 64 1006.9
20260508201511 66 204 2.6 22.6 0.00 0.09 0.01 64 1007.0
20260508201011 66 0.0 0.9 0.00 0.09 0.01 64 1007.1
20260508200011 66 298 1.7 0.9 0.00 0.09 0.01 64 1007.2
20260508195011 65 205 0.9 0.9 0.00 0.09 0.01 61 1007.2
20260508194511 66 211 0.9 0.9 0.00 0.09 0.01 61 1007.3
20260508194011 66 205 0.9 0.9 0.00 0.09 0.01 61 1007.4
20260508193011 66 211 2.6 0.0 0.00 0.09 0.01 59 1007.6
20260508192511 66 211 2.6 0.0 0.00 0.09 0.01 59 1007.6
20260508192011 66 183 0.0 0.0 0.00 0.09 0.01 59 1007.7
20260508191511 66 183 0.0 0.0 0.00 0.09 0.01 59 1007.8
20260508191011 67 201 0.0 0.0 0.00 0.09 0.01 59 1008.0
20260508190511 67 210 0.9 0.0 0.00 0.09 0.01 59 1008.0
20260508190011 67 217 0.9 0.0 0.00 0.09 0.01 59 1008.2
20260508185511 67 207 1.7 0.0 0.00 0.09 0.01 57 1008.2
20260508185011 67 207 1.7 0.0 0.00 0.09 0.01 57 1008.2
20260508184511 66 121 0.0 0.0 0.00 0.09 0.01 57 1008.3
20260508184011 66 121 0.0 0.0 0.00 0.09 0.01 57 1008.3
20260508183511 66 183 0.9 0.0 0.00 0.09 0.01 57 1008.4
20260508182511 66 190 0.9 0.9 0.00 0.09 0.01 47 1008.5
20260508182011 68 150 0.9 0.9 0.00 0.09 0.01 47 1008.5
20260508181511 68 194 1.7 0.0 0.00 0.09 0.01 47 1008.5
20260508180511 68 248 0.9 0.0 0.00 0.09 0.01 49 1008.6
20260508180011 67 217 1.7 0.0 0.00 0.09 0.01 49 1008.7
20260508175511 67 215 0.9 0.0 0.00 0.09 0.01 49 1008.8
20260508174511 67 215 0.9 0.0 0.00 0.09 0.01 49 1009.0
20260508174011 67 141 0.9 0.0 0.00 0.09 0.01 49 1009.1
20260508173511 67 217 1.7 0.0 0.00 0.09 0.01 54 1009.4
20260508173011 66 160 0.9 0.0 0.00 0.09 0.01 54 1009.4
20260508171511 65 146 0.0 0.9 0.00 0.09 0.01 54 1009.6
20260508171011 65 146 0.0 0.9 0.00 0.09 0.01 54 1009.6
20260508170011 65 228 0.9 0.9 0.00 0.09 0.01 100 1009.7
20260508165511 65 310 0.0 0.0 0.00 0.09 0.01 100 1009.8
20260508165011 65 295 0.0 0.0 0.00 0.09 0.01 100 1009.8
20260508164511 65 295 0.0 0.0 0.00 0.09 0.01 100 1009.9
20260508163511 64 250 0.9 22.6 0.00 0.09 0.01 100 1010.1
20260508162510 62 203 0.9 22.6 0.00 0.09 0.01 100 1010.2
20260508162010 62 203 0.9 22.6 0.00 0.09 0.01 100 1010.3
20260508161010 62 319 0.9 22.6 0.00 0.09 0.01 100 1010.4
20260508160510 62 319 0.9 22.6 0.00 0.09 0.01 100 1010.4
20260508160010 62 248 1.7 22.6 0.00 0.09 0.01 100 1010.4
20260508155510 62 248 1.7 22.6 0.00 0.09 0.01 100 1010.4
20260508155010 62 248 1.7 22.6 0.00 0.09 0.01 100 1010.4
20260508154010 61 195 0.9 22.6 0.00 0.09 0.01 100 1010.5
20260508152510 60 130 0.9 22.6 0.00 0.09 0.01 100 1010.5
20260508152010 59 0.0 22.6 0.00 0.09 0.01 100 1010.4
20260508151510 59 221 0.9 22.6 0.00 0.09 0.01 100 1010.5
20260508151010 59 221 0.9 22.6 0.00 0.09 0.01 100 1010.5
20260508150510 58 205 0.9 22.6 0.00 0.09 0.01 100 1010.4
20260508150010 58 205 0.9 22.6 0.00 0.09 0.01 100 1010.4
20260508145510 58 205 0.9 22.6 0.00 0.09 0.01 100 1010.4
20260508145010 58 232 0.0 0.0 0.00 0.09 0.01 100 1010.5
20260508144510 58 232 0.0 0.0 0.00 0.09 0.01 100 1010.5
20260508144010 58 232 0.0 0.0 0.00 0.09 0.01 100 1010.6
20260508143510 57 208 0.0 0.0 0.00 0.09 0.01 100 1010.7
20260508143010 57 208 0.0 0.0 0.00 0.09 0.01 100 1010.7
20260508142510 57 208 0.0 0.0 0.00 0.09 0.01 100 1010.8
20260508142010 59 186 0.0 0.0 0.00 0.09 0.01 100 1010.7
20260508141510 59 186 0.0 0.0 0.00 0.09 0.01 100 1010.9
20260508141010 53 174 0.9 0.0 0.00 0.09 0.01 100 1011.0
20260508140510 53 208 0.9 0.0 0.00 0.09 0.01 100 1011.0
20260508135510 53 197 0.9 0.0 0.00 0.09 0.01 100 1011.0
20260508135010 53 197 0.9 0.0 0.00 0.09 0.01 100 1011.1
20260508134510 53 197 0.9 0.0 0.00 0.09 0.01 100 1011.1
20260508134010 53 278 0.0 0.0 0.00 0.09 0.01 100 1011.0
20260508133510 53 257 0.9 0.0 0.00 0.09 0.01 100 1011.1
20260508133010 53 153 0.9 0.0 0.00 0.09 0.01 100 1010.9
20260508132510 53 138 0.0 0.0 0.00 0.09 0.01 100 1010.9
20260508132010 53 197 0.0 0.0 0.00 0.09 0.01 100 1010.9
20260508131510 53 203 0.0 0.0 0.00 0.09 0.01 100 1011.0
20260508131010 52 203 0.0 0.0 0.00 0.09 0.01 100 1010.9
20260508130510 52 203 0.0 0.0 0.00 0.09 0.01 100 1011.1
20260508130010 52 143 0.0 0.0 0.00 0.09 0.01 100 1011.0
20260508125510 50 143 0.0 0.0 0.00 0.09 0.01 100 1011.1
20260508125010 50 144 0.0 0.0 0.00 0.09 0.01 100 1011.1
20260508124510 49 191 0.0 0.0 0.00 0.09 0.01 100 1011.0
20260508123510 48 195 0.0 0.0 0.00 0.09 0.01 100 1011.1
20260508123010 48 194 0.0 0.0 0.00 0.09 0.01 100 1011.0
20260508122010 48 193 0.0 0.0 0.00 0.09 0.01 100 1011.0
20260508121510 47 194 0.0 0.0 0.00 0.09 0.01 100 1011.0
20260508121010 47 194 0.0 0.0 0.00 0.09 0.01 100 1010.9
20260508120510 47 194 0.0 0.0 0.00 0.09 0.01 100 1011.0
20260508120010 47 194 0.0 0.0 0.00 0.09 0.01 100 1010.9
20260508115510 46 194 0.0 0.0 0.00 0.09 0.01 100 1010.8
20260508114510 44 194 0.0 0.0 0.00 0.09 0.01 100 1010.8
20260508113510 42 194 0.0 0.0 0.00 0.09 0.01 100 1010.7
20260508113010 41 194 0.0 0.0 0.00 0.09 0.01 100 1010.8
20260508112510 40 194 0.0 0.0 0.00 0.09 0.01 100 1010.8
20260508110510 40 194 0.0 0.0 0.00 0.09 0.01 1010.5
20260508110010 0 0.0 22.6 0.00 0.09 0.01 1010.5
20260508105510 0 0.0 22.6 0.00 0.09 0.01 1010.4
20260508105010 0 0.0 22.6 0.00 0.09 0.01 1010.5
20260508104511 0 0.0 22.6 0.00 0.09 0.01 1010.5
20260508103511 0 0.0 22.6 0.00 0.09 0.01 1010.4
20260508103010 0 0.0 22.6 0.00 0.09 0.01 1010.5
20260508102010 0 0.0 22.6 0.00 0.09 0.01 1010.6
20260508101511 0 0.0 22.6 0.00 0.09 0.01 1010.5
20260508101010 0 0.0 22.6 0.00 0.09 0.01 1010.5
20260508100510 0 0.0 22.6 0.00 0.09 0.01 1010.5
20260508100010 0 0.0 22.6 0.00 0.09 0.01 1010.4
20260508095511 0 0.0 22.6 0.00 0.09 0.01 1010.5
20260508095011 0 0.0 22.6 0.00 0.09 0.01 1010.5
20260508094511 0 0.0 22.6 0.00 0.09 0.01 1010.5
20260508094010 0 0.0 22.6 0.00 0.09 0.01 1010.5
20260508093510 0 0.0 22.6 0.00 0.09 0.01 1010.6
20260508092511 40 194 0.0 0.0 0.00 0.09 0.01 100 1010.7
20260508092011 40 194 0.0 0.0 0.00 0.09 0.01 100 1010.6
20260508091510 40 194 0.0 0.0 0.00 0.09 0.01 100 1010.6
20260508091010 41 194 0.0 0.0 0.00 0.09 0.01 100 1010.6
20260508090510 41 194 0.0 0.0 0.00 0.09 0.01 100 1010.5
20260508090010 41 195 0.0 0.0 0.01 0.09 0.01 100 1010.6
20260508085510 41 195 0.0 0.0 0.01 0.09 0.01 100 1010.6
20260508085011 41 194 0.0 0.0 0.01 0.09 0.01 100 1010.6
20260508084510 41 195 0.0 0.0 0.01 0.09 0.01 100 1010.6
20260508084010 41 194 0.0 0.0 0.01 0.09 0.01 100 1010.5
20260508083511 41 195 0.0 0.0 0.01 0.09 0.01 100 1010.5
20260508083011 41 194 0.0 0.0 0.01 0.09 0.01 100 1010.5
20260508081511 41 194 0.0 0.0 0.01 0.09 0.01 100 1010.5
20260508081011 42 195 0.0 0.0 0.01 0.09 0.01 100 1010.5
20260508080510 42 195 0.0 0.0 0.01 0.09 0.01 100 1010.6
20260508075010 43 194 0.0 0.0 0.01 0.09 0.01 100 1010.6
20260508074010 43 194 0.0 0.0 0.01 0.09 0.01 100 1010.6
20260508073511 43 194 0.0 0.0 0.01 0.09 0.01 100 1010.6
20260508072510 43 195 0.0 0.0 0.00 0.08 0.00 100 1010.6
20260508071010 43 194 0.0 0.0 0.00 0.08 0.00 2 1010.7
20260508070511 43 194 0.0 0.0 0.00 0.08 0.00 2 1010.8
20260508070010 43 194 0.0 0.0 0.00 0.08 0.00 2 1010.7
20260508065510 43 194 0.0 0.0 0.00 0.08 0.00 2 1010.7
20260508065011 43 194 0.0 0.0 0.00 0.08 0.00 2 1010.8
20260508064510 43 194 0.0 0.0 0.00 0.08 0.00 2 1010.7
20260508063511 43 194 0.0 0.0 0.00 0.08 0.00 1 1010.8
20260508063011 43 194 0.0 0.0 0.00 0.08 0.00 1 1010.8
20260508062511 44 195 0.0 0.0 0.00 0.08 0.00 1 1010.8
20260508062010 44 194 0.0 0.0 0.00 0.08 0.00 1 1010.8
20260508061511 44 195 0.0 0.0 0.00 0.08 0.00 1 1010.7
20260508061011 44 194 0.0 0.0 0.00 0.08 0.00 1 1010.8
20260508060511 44 194 0.0 0.0 0.00 0.08 0.00 4 1010.9
20260508060011 44 194 0.0 0.0 0.00 0.08 0.00 4 1010.9
20260508055511 44 194 0.0 0.0 0.00 0.08 0.00 4 1010.9
20260508055010 44 194 0.0 0.0 0.00 0.08 0.00 4 1010.9
20260508054511 44 194 0.0 0.0 0.00 0.08 0.00 4 1011.0
20260508054011 44 194 0.0 0.0 0.00 0.08 0.00 12 1011.0
20260508053510 44 194 0.0 0.0 0.00 0.08 0.00 12 1011.0
20260508053011 44 194 0.0 0.0 0.00 0.08 0.00 12 1010.9
20260508051511 44 194 0.0 0.0 0.00 0.08 0.00 12 1010.9
20260508051011 44 194 0.0 0.0 0.00 0.08 0.00 12 1010.9
20260508050511 44 194 0.0 0.0 0.00 0.08 0.00 20 1010.9
20260508050010 44 194 0.0 0.0 0.00 0.08 0.00 20 1010.9
20260508045511 44 194 0.0 0.0 0.00 0.08 0.00 20 1010.8
20260508045010 44 194 0.0 0.0 0.00 0.08 0.00 20 1010.8
20260508044511 44 194 0.0 0.0 0.00 0.08 0.00 20 1010.9
20260508044011 44 194 0.0 0.0 0.00 0.08 0.00 20 1010.8
20260508043511 44 194 0.0 0.0 0.00 0.08 0.00 20 1010.8
20260508043011 44 195 0.0 0.0 0.00 0.08 0.00 20 1010.9
20260508042511 44 194 0.0 0.0 0.00 0.08 0.00 27 1010.8
20260508042010 44 195 0.0 0.0 0.00 0.08 0.00 27 1010.8
20260508041511 44 194 0.0 0.0 0.00 0.08 0.00 27 1010.9
20260508041011 44 194 0.0 0.0 0.00 0.08 0.00 27 1010.8
20260508040511 44 194 0.0 0.0 0.00 0.08 0.00 27 1010.9
20260508040011 44 195 0.0 0.0 0.00 0.08 0.00 27 1010.9
20260508035511 44 195 0.0 0.0 0.00 0.08 0.08 33 1010.9
20260508034511 44 194 0.0 0.0 0.00 0.08 0.08 33 1010.8
20260508034011 44 194 0.0 0.0 0.00 0.08 0.08 33 1010.8
20260508033511 44 195 0.0 0.0 0.00 0.08 0.08 34 1010.7
20260508033011 44 194 0.0 0.0 0.00 0.08 0.08 43 1010.7
20260508032011 44 194 0.0 0.0 0.00 0.08 0.08 43 1010.7
20260508031511 44 194 0.0 0.0 0.00 0.08 0.08 43 1010.7
20260508031011 44 194 0.0 0.0 0.00 0.08 0.08 43 1010.8
20260508030511 44 195 0.0 0.0 0.00 0.08 0.08 43 1010.8
20260508030011 44 194 0.0 0.0 0.00 0.08 0.08 46 1010.8
20260508025511 44 195 0.0 0.0 0.00 0.08 0.08 54 1010.8
20260508025011 44 194 0.0 0.0 0.00 0.08 0.08 54 1010.8